CW3276 Weather Reports


time (UTC)temp
C
wind
direction
speed
KPH
gust
KPH
rain 1hr
cm
rain 24hr
cm
rain mn
cm
humidity
%
barometer
mb
20260507131520 16 45 4.8 16.1 0.00 0.28 0.00 56 1013.4
20260507130526 16 45 4.8 16.1 0.00 0.28 0.00 56 1013.3
20260507125452 16 45 8.0 19.3 0.00 0.28 0.00 56 1013.3
20260507124416 16 45 4.8 17.7 0.00 0.28 0.00 55 1013.3
20260507123349 16 23 6.4 20.9 0.00 0.28 0.00 54 1013.2
20260507121306 16 23 6.4 16.1 0.00 0.28 0.00 55 1013.0
20260507115258 16 0 6.4 16.1 0.00 0.28 0.00 50 1013.1
20260507114257 16 23 6.4 20.9 0.00 0.28 0.00 52 1013.1
20260507113248 16 180 6.4 16.1 0.00 0.28 0.00 53 1013.1
20260507112227 16 0 8.0 22.5 0.00 0.28 0.00 53 1013.0
20260507111159 15 180 8.0 16.1 0.00 0.28 0.00 54 1013.2
20260507110156 15 0 8.0 19.3 0.00 0.28 0.00 54 1013.2
20260507105134 15 45 6.4 17.7 0.00 0.28 0.00 57 1012.8
20260507104121 15 45 6.4 19.3 0.00 0.28 0.00 56 1012.8
20260507103100 15 45 6.4 17.7 0.00 0.28 0.00 55 1012.8
20260507102046 15 180 4.8 14.5 0.00 0.28 0.00 56 1012.8
20260507101022 15 0 8.0 17.7 0.00 0.28 0.00 58 1012.8
20260507100006 14 45 8.0 22.5 0.00 0.28 0.00 61 1012.8
20260507094959 13 180 8.0 17.7 0.00 0.28 0.00 60 1012.7
20260507093946 13 0 6.4 24.1 0.00 0.28 0.00 61 1012.5
20260507092926 13 45 8.0 24.1 0.00 0.28 0.00 63 1012.5
20260507090921 13 45 4.8 22.5 0.00 0.28 0.00 64 1012.6
20260507085853 13 45 6.4 20.9 0.00 0.28 0.00 66 1012.6
20260507084833 12 45 6.4 22.5 0.00 0.28 0.00 67 1012.5
20260507082730 12 45 8.0 17.7 0.00 0.28 0.00 71 1012.5
20260507081658 12 0 6.4 19.3 0.00 0.28 0.00 70 1012.4
20260507080635 11 45 6.4 22.5 0.00 0.28 0.00 75 1012.3
20260507075552 11 45 6.4 22.5 0.00 0.28 0.00 78 1012.3
20260507074525 11 0 8.0 19.3 0.00 0.28 0.00 78 1012.2
20260507073447 11 45 6.4 19.3 0.00 0.28 0.00 80 1012.3
20260507072421 11 0 4.8 17.7 0.00 0.28 0.00 82 1012.2
20260507071401 9 45 6.4 17.7 0.00 0.28 0.00 87 1011.9
20260507070352 9 45 8.0 17.7 0.00 0.28 0.00 88 1011.9
20260507065319 9 45 6.4 16.1 0.00 0.28 0.00 92 1011.7
20260507064229 8 23 3.2 9.7 0.00 0.28 0.00 94 1011.7
20260507063217 8 0 4.8 14.5 0.00 0.28 0.00 94 1011.7
20260507062205 7 45 3.2 16.1 0.00 0.28 0.00 94 1011.6
20260507060121 7 0 3.2 14.5 0.00 0.28 0.00 95 1011.4
20260507055115 7 0 3.2 8.0 0.00 0.28 0.00 95 1011.4
20260507053049 7 45 3.2 8.0 0.00 0.28 0.00 95 1011.3
20260507052029 7 68 1.6 8.0 0.00 0.28 0.00 95 1011.1
20260507050949 7 45 1.6 9.7 0.00 0.28 0.00 95 1010.9
20260507043821 7 23 1.6 9.7 0.00 0.28 0.00 95 1010.5
20260507042757 7 45 3.2 9.7 0.00 0.28 0.00 95 1010.5
20260507041745 7 45 3.2 16.1 0.00 0.28 0.00 95 1010.4
20260507040725 7 45 4.8 16.1 0.00 0.28 0.00 95 1010.4
20260507035712 7 0 3.2 11.3 0.00 0.28 0.00 95 1010.4
20260507033625 7 45 3.2 11.3 0.00 0.28 0.00 95 1010.1
20260507032615 7 45 3.2 8.0 0.00 0.28 0.00 95 1010.1
20260507031604 7 45 3.2 9.7 0.00 0.28 0.00 95 1010.0
20260507030555 7 45 1.6 8.0 0.00 0.28 0.00 95 1009.9
20260507024458 7 45 1.6 8.0 0.00 0.28 0.00 95 1009.8
20260507023438 7 45 1.6 8.0 0.00 0.28 0.00 95 1009.6
20260507022414 7 45 3.2 8.0 0.00 0.28 0.00 95 1009.6
20260507021404 7 23 1.6 6.4 0.00 0.28 0.00 95 1009.4
20260507020334 7 45 3.2 8.0 0.00 0.28 0.00 95 1009.4
20260507015311 7 45 3.2 9.7 0.00 0.28 0.00 95 1009.3
20260507014252 7 0 1.6 8.0 0.00 0.28 0.00 95 1009.3
20260507012230 7 45 3.2 9.7 0.00 0.28 0.00 95 1009.1
20260507011219 7 45 3.2 9.7 0.00 0.28 0.00 95 1008.8
20260507005158 7 113 3.2 11.3 0.00 0.28 0.00 95 1008.8
20260507004157 7 68 1.6 6.4 0.00 0.28 0.00 95 1008.9
20260507003136 7 45 3.2 9.7 0.00 0.28 0.00 95 1008.9
20260507002105 7 45 3.2 11.3 0.00 0.28 0.00 95 1008.8
20260507001033 7 23 3.2 9.7 0.00 0.28 0.00 95 1008.8
20260507000019 7 45 3.2 8.0 0.00 0.28 0.00 95 1008.8
20260506234949 7 45 1.6 8.0 0.00 0.28 0.00 95 1008.8
20260506233918 7 45 3.2 6.4 0.00 0.28 0.00 95 1008.7
20260506232853 7 45 3.2 8.0 0.00 0.28 0.00 95 1008.7
20260506231853 8 45 3.2 8.0 0.00 0.28 0.00 95 1008.9
20260506230821 8 45 3.2 8.0 0.00 0.28 0.00 95 1008.7
20260506225752 8 45 3.2 9.7 0.00 0.28 0.00 95 1008.7
20260506223714 8 45 1.6 6.4 0.00 0.28 0.00 96 1008.5
20260506222656 8 45 3.2 14.5 0.00 0.28 0.00 96 1008.5
20260506221628 8 23 3.2 14.5 0.00 0.28 0.00 96 1008.2
20260506220616 8 0 3.2 16.1 0.00 0.28 0.00 96 1008.2
20260506215545 8 0 6.4 16.1 0.00 0.28 0.28 96 1008.2
20260506213515 8 0 3.2 11.3 0.00 0.28 0.28 96 1008.1
20260506211434 8 45 1.6 9.7 0.00 0.28 0.28 96 1008.0
20260506210359 8 45 3.2 11.3 0.00 0.28 0.28 95 1007.8
20260506205328 8 45 1.6 6.4 0.00 0.28 0.28 95 1007.7
20260506204308 8 45 3.2 9.7 0.00 0.28 0.28 95 1007.7
20260506203257 8 23 1.6 8.0 0.00 0.28 0.28 95 1007.7
20260506202246 8 23 1.6 4.8 0.00 0.28 0.28 95 1007.6
20260506201234 8 23 1.6 6.4 0.00 0.28 0.28 95 1007.6
20260506200204 8 23 1.6 4.8 0.00 0.28 0.28 95 1007.6
20260506195148 8 23 1.6 6.4 0.00 0.28 0.28 95 1007.5
20260506194138 9 0 1.6 6.4 0.00 0.28 0.28 95 1007.3
20260506193120 9 23 1.6 6.4 0.00 0.28 0.28 94 1007.3
20260506192051 9 23 3.2 14.5 0.00 0.28 0.28 94 1007.2
20260506191017 9 45 1.6 11.3 0.00 0.28 0.28 94 1007.1
20260506185938 9 45 3.2 8.0 0.03 0.28 0.28 94 1007.1
20260506184929 9 0 1.6 8.0 0.03 0.28 0.28 94 1007.1
20260506183913 9 23 3.2 8.0 0.05 0.28 0.28 94 1006.9
20260506181834 9 45 3.2 9.7 0.08 0.25 0.25 93 1006.6
20260506180825 10 23 3.2 8.0 0.10 0.25 0.25 93 1006.6
20260506174741 10 23 3.2 8.0 0.15 0.23 0.23 92 1006.6
20260506173731 10 45 1.6 6.4 0.15 0.23 0.23 91 1006.4
20260506172715 10 45 1.6 8.0 0.13 0.18 0.18 91 1006.4
20260506171649 10 23 3.2 9.7 0.10 0.15 0.15 90 1006.2
20260506170626 10 45 3.2 9.7 0.10 0.15 0.15 89 1006.1
20260506165554 10 23 1.6 8.0 0.08 0.13 0.13 87 1006.1
20260506164545 10 23 1.6 6.4 0.08 0.10 0.10 86 1006.1
20260506163530 11 23 1.6 8.0 0.08 0.08 0.08 85 1006.1
20260506162511 11 45 1.6 9.7 0.05 0.05 0.05 83 1006.1
20260506161436 11 23 1.6 9.7 0.05 0.05 0.05 82 1006.1
20260506160407 11 23 3.2 14.5 0.05 0.05 0.05 81 1006.1
20260506154340 12 23 4.8 9.7 0.00 0.00 0.00 75 1006.0
20260506153324 12 45 6.4 14.5 0.00 0.00 0.00 73 1006.0
20260506152309 12 45 4.8 16.1 0.00 0.00 0.00 72 1006.0
20260506151249 12 45 6.4 17.7 0.00 0.00 0.00 71 1006.0
20260506150219 12 23 6.4 16.1 0.00 0.00 0.00 72 1006.0
20260506145150 12 23 4.8 19.3 0.00 0.00 0.00 69 1006.0
20260506144136 12 0 6.4 16.1 0.00 0.00 0.00 67 1006.1
20260506143116 12 23 4.8 14.5 0.00 0.00 0.00 66 1006.1
20260506142101 12 45 6.4 11.3 0.00 0.00 0.00 65 1006.1
20260506141044 12 23 4.8 16.1 0.00 0.00 0.00 65 1006.0
20260506140043 12 45 8.0 19.3 0.00 0.00 0.00 66 1006.0
20260506135007 12 23 8.0 22.5 0.00 0.00 0.00 66 1006.0
20260506133941 13 45 8.0 19.3 0.00 0.00 0.00 67 1006.0
20260506132933 13 45 4.8 17.7 0.00 0.00 0.00 66 1006.0
20260506131929 13 23 6.4 16.1 0.00 0.00 0.00 66 1005.9